BEARDSLEY LAKE (BRD)

Elevation: 3398' · STANISLAUS R basin · Operator: US Bureau of Reclamation

Provisional data, subject to change.
Query executed Friday at 3:31:54   clock

Select a sensor type for a plot of data.
Note: Reservoir Flows are daily averages.

Earlier

Date STORAGE    RES CHG    OUTFLOW    PPT INC   
 AF   AF   CFS   INCHES  
06/26/2014 46811 120 197 0.05
06/27/2014 46783 -28 198 0.00
06/28/2014 46647 -136 198 0.00
06/29/2014 46495 -152 198 0.00
06/30/2014 46467 -28 197 0.00
07/01/2014 46310 -157 198 0.00
07/02/2014 46228 -82 197 0.00
07/03/2014 46125 -103 197 0.00
07/04/2014 45984 -141 197 0.00
07/05/2014 45869 -115 197 0.00
07/06/2014 45821 -48 196 0.00
07/07/2014 45642 -179 195 0.00
07/08/2014 45436 -206 195 0.00
07/09/2014 45263 -173 194 0.00
07/10/2014 45004 -259 195 0.00
07/11/2014 44762 -242 200 0.00
07/12/2014 44573 -189 201 0.00
07/13/2014 44450 -123 201 0.00
07/14/2014 44365 -85 202 0.00
07/15/2014 44236 -129 202 0.00
07/16/2014 44097 -139 201 0.00
07/17/2014 43845 -252 202 0.00
07/18/2014 43733 -112 194 0.00
07/19/2014 43659 -74 194 0.00
07/20/2014 43525 -134 194 0.00
07/21/2014 43413 -112 196 0.52
07/22/2014 43318 -95 196 0.00
07/23/2014 43212 -106 196 0.00
07/24/2014 -- -- -- --
07/25/2014 -- -- -- --

Later | Latest

Warning! This data is preliminary and subject to revision.

Download Data Now Download Data Now | Show BRD Map | Plot BRD Data | 1 Month BRD Data | Real-Time BRD Data | BRD Info